Location: Carrières
(48.9495°N, 2.0407°E)
Time: 02:27:02
(UTC+00:00)

Transit 2A Rocket - Pass Details

Date: 01 May 2024
Orbit: 585 x 908 km, 66.7° (Epoch: 19 May)

Event Time Altitude Azimuth Distance (km) Brightness Sun altitude
Rises 15:33:32 0° 326° (NW) 3,263 8.5 33.5°
Reaches altitude 10° 15:36:14 10° 338° (NNW) 2,388 7.7 33.1°
Maximum altitude 15:40:57 28° 36° (NE) 1,552 6.4 32.4°
Drops below altitude 10° 15:45:56 10° 94° (E) 2,534 7.3 31.6°
Sets 15:48:52 0° 106° (ESE) 3,501 8.0 31.1°
